XSS 10

Satellite information

Favourite Embed

Satellite Type and Status

PAYLOADIN ORBIT

Key statistics

Satellite XSS 10 at a glance.

Uptime

8135

Days in orbit

Revolutions

≈ 14.9

Per day

Orbit

LEO

Low Earth Orbit

Inclination

39.7

Latest

Satellite identification and parameters

Extended collection of information and parameters for XSS 10.

Object identification

Identified? True

Debris? False

Object name: XSS 10

International designator: 2003-005B

Object number (NORAD): 27664

Object ID (CCSDS): 27664

Country: UNITED STATES OF AMERICA (US)

Current information (Y/N): Y

RCS size: MEDIUM

Orbital parameters

Period: 96.795 minutes

Inclination: 39.745 deg

SMA: 6983.304 km

Apoapsis: 712.53 km

Periapsis: 497.808 km

RAAN: 196.6175 deg

Eccentricy: 0.015374

Argument of periapsis: 91.7129 deg

Mean anomaly: 270.1271 deg

Mean motion: 14.87686195 rev/day

Mean motion (dot): 0.00001939 rev/day2

B* drag term: 0.00018223 1/REarth

Two-line elements (TLE)

Creation date: May 7, 2025, 10:46 p.m.

Reference frame: TEME

Reference center: EARTH

Epoch: May 7, 2025, 8:51 p.m. UTC

TLE line 0: 0 XSS 10

TLE line 1: 1 27664U 03005B 25127.86911492 .00001939 00000-0 18223-3 0 9991

TLE line 2: 2 27664 39.7450 196.6175 0153740 91.7129 270.1271 14.87686195202356

Live tracking on map

Real-time ground track for satellite XSS 10.

In-orbit conjunctions

A list of the most updated potential collisions computed for object XSS 10.

Target Orbit TCA Probability of collision Miss distance Type
CZ-4 DEB SSO 2024-10-31 14:46:15 0.0005218469 393.0 (m) DEBRIS
CZ-6A DEB SSO 2024-09-21 23:25:08 0.0001281942 599.0 (m) DEBRIS

Associated space launch

USA-166, also known as GPS IIR-8 and GPS SVN-56, is an American navigation satellite which forms part of the Global Positioning System. It was the eighth Block IIR GPS satellite to be launched, out of thirteen in the original configuration, and twenty one overall.

XSS 10 was lifted into orbit during the mission ‘Delta II | GPS IIR-8’, on board a Delta II space rocket.

The launch took place on Jan. 29, 2003, 6:06 p.m. from Space Launch Complex 17B.

For more information about the launch, click the button.

Launch to space Delta II | GPS IIR-8
Delta II | GPS IIR-8

Agency: N/A

Status: Launch Successful

Launch date: Jan. 29, 2003, 6:06 p.m. UTC

Rocket: Delta II

Launch pad: Space Launch Complex 17B

Location: Cape Canaveral SFS, FL, USA

...

Latest news about this satellite

There are no fresh news available about this satellite. Check back as we update our databases every day.


Newsletter sign-up

Weekly statistics, charts and insights to help you stay on top of the space industry.